STARLINK-33590 (64316 NORAD) Tracking and Keplerian Element Data

This shows tracking and keplerian element data for the satellite.

Feedback or suggestion? Click here.




ElementValue
Catalog64316
NameSTARLINK-33590
Epoch Orbit2970
Epoch Day354.13924855
Epoch Year2025
RAAN34.9801
Inclination70.0003
Eccentricity0.0003234
Argument of Perigee265.5346
Mean Anonmoly94.5444
Mean Motion14.98348081
Decay Rate5.3E-06
L11 64316U 25123AB 25354.13924855 .00000530 00000+0 52185-4 0 9991
L22 64316 70.0003 34.9801 0003234 265.5346 94.5444 14.98348081 29704



Live tracking and technical data element details for STARLINK-33590 (NORAD 64316). STARLINK-33590 can be tracked NOW for your location showing map with azimuth and elevation plus other details from your city location.







IsCatalogInMostPopularTable: catalog: 64316, numindb: 4
Update: records affected: 1



GetName: 64316 STARLINK-33590

Hit Count: updated at: Sun, 08 Feb 2026 17:12:12 GMT